changsha , China , ASIA

  • Sunday
    May 26

    Heavy rain  Shower

    81 °F  73 °F

    South  Southwest

        

  • Monday
    May 27

    Overcast  Cloudy

    81 °F  72 °F

    North  Northeast

    3~4L   3~4L 

  • Tuesday
    May 28

    Cloudy  Cloudy

    81 °F  70 °F

    Northeast  Northwest

        

  • Wednesday
    May 29

    Cloudy  Cloudy

    81 °F  70 °F

    North  East

        

  • Thursday
    May 30

    Shower  Cloudy

    75 °F  72 °F

    North  North

        

  • Friday
    May 31

    Cloudy  Cloudy

    86 °F  72 °F

    North  North

        

  • Saturday
    June 1

    Cloudy  Cloudy

    88 °F  73 °F

    South  South

        

Date   Weather Temperature Humidity Total_rain Visibility Wind
11:00 Moderate rain 80°F 98.8% 6mm 999.9km Southwest  3.4m/s
14:00 Moderate rain 80°F 98.9% 7.6mm 999.9km Southwest  2.9m/s
17:00 Moderate rain 79°F 99% 4mm 999.9km Southwest  2.0m/s
20:00 Moderate rain 77°F 96.3% 7.5mm 999.9km Southeast  1.4m/s
23:00 Shower 76°F 96.3% 6.8mm 999.9km Southwest  2.9m/s
02:00 Shower 76°F 96.4% 0.7mm 999.9km Southwest  2.5m/s
05:00 Shower 74°F 96.7% 1.4mm 999.9km Southwest  1.5m/s
08:00 Shower 75°F 98.3% 0.1mm 999.9km Southwest  1.6m/s
11:00 Overcast 79°F 89.2% 0mm 999.9km Northeast  2.7m/s
14:00 Overcast 79°F 95.9% 0mm 999.9km Northeast  2.2m/s
17:00 Overcast 80°F 95.5% 0mm 999.9km Northeast  1.5m/s
20:00 Overcast 76°F 93.4% 0mm 999.9km Northeast  1.6m/s
23:00 Cloudy 74°F 93.1% 0mm 999.9km Northeast  2.5m/s
02:00 Cloudy 73°F 93.2% 0mm 999.9km Northeast  1.8m/s
05:00 Cloudy 72°F 93.2% 0mm 999.9km Northeast  3.0m/s
08:00 Cloudy 72°F 93% 0mm 999.9km Northeast  2.5m/s
11:00 Cloudy 77°F 73.6% 0mm 999.9km Northeast  3.2m/s
14:00 Cloudy 80°F 79.4% 0mm 999.9km Northeast  2.0m/s
17:00 Cloudy 75°F 78.6% 0mm 999.9km Northeast  2.8m/s
20:00 Cloudy 74°F 83.9% 0mm 999.9km Northeast  1.7m/s
23:00 Cloudy 73°F 86.8% 0mm 999.9km Northeast  1.0m/s
02:00 Cloudy 72°F 92% 0mm 999.9km Northeast  0.4m/s
05:00 Cloudy 70°F 94.3% 0mm 999.9km Northeast  0.9m/s
08:00 Cloudy 73°F 88.8% 0mm 999.9km Northwest  0.6m/s
11:00 Cloudy 78°F 64.9% 0mm 999.9km Northwest  1.2m/s
14:00 Cloudy 80°F 74.1% 0mm 999.9km Northwest  1.9m/s
17:00 Cloudy 78°F 72.7% 0mm 999.9km Northeast  2.1m/s
20:00 Cloudy 76°F 76.3% 0mm 999.9km North  1.1m/s
23:00 Cloudy 73°F 83.5% 0mm 999.9km Northeast  0.7m/s
02:00 Cloudy 71°F 90.4% 0mm 999.9km Northeast  0.9m/s
05:00 Cloudy 70°F 95.9% 0mm 999.9km Southeast  2.9m/s
08:00 Cloudy 72°F 89.7% 0mm 999.9km Northeast  0.8m/s
11:00 Cloudy 74°F 78.2% 0mm 999.9km Southeast  1.8m/s
14:00 Cloudy 75°F 82.7% 0mm 999.9km Northwest  1.8m/s
17:00 Overcast 74°F 85.8% 0mm 999.9km Northwest  1.2m/s
20:00 Shower 73°F 87.7% 2.2mm 999.9km Northwest  2.0m/s
23:00 Cloudy 73°F 89.7% 0mm 999.9km Northeast  2.9m/s
02:00 Cloudy 72°F 95.5% 0mm 999.9km Northwest  2.5m/s
05:00 Cloudy 73°F 96.8% 0mm 999.9km Northwest  1.6m/s
08:00 Cloudy 73°F 98% 0mm 999.9km Northeast  1.0m/s
11:00 Cloudy 84°F 97.4% 0mm 999.9km Northwest  2.3m/s
14:00 Cloudy 86°F 97.9% 0mm 999.9km Northwest  1.5m/s
17:00 Cloudy 82°F 96% 0mm 999.9km Northwest  2.4m/s
20:00 Cloudy 78°F 94.2% 0mm 999.9km Northwest  2.8m/s
23:00 Cloudy 80°F 97.7% 0mm 999.9km Southwest  1.5m/s
02:00 Cloudy 72°F 99.2% 0mm 999.9km Southwest  1.3m/s
05:00 Cloudy 73°F 98.7% 0mm 999.9km Southwest  1.7m/s
08:00 Cloudy 77°F 97.5% 0mm 999.9km Southwest  1.8m/s
11:00 Cloudy 82°F 79.3% 0mm 999.9km Southwest  2.1m/s
14:00 Cloudy 83°F 84.8% 0mm 999.9km Southwest  1.8m/s
17:00 Cloudy 87°F 83.8% 0mm 999.9km Southwest  2.0m/s
20:00 Cloudy 79°F 87.4% 0mm 999.9km Southeast  2.0m/s
23:00 Cloudy 78°F 92.7% 0mm 999.9km Southwest  2.1m/s
02:00 Cloudy 78°F 96.2% 0mm 999.9km Southeast  1.7m/s
05:00 Cloudy 74°F 98.4% 0mm 999.9km Southeast  1.2m/s